Showing default

GALILEO 15 (267), 41859

Orbit data source: Space-Track

GALILEO 15 (267), 41859 is a payload satellite owned by GNSS Agency (ESA) that was launched on Thu, 17 Nov 2016 UTC via an ARIANE 5ES launch vehicle from the French Guiana (FRGUI). Payloads include a variety of satellites, spacecraft, and rockets equipped with specific instruments for various scientific and technological missions. These include communications satellites like Starlink; space stations such as the ISS; scientific satellites like the Hubble; Earth observation satellites from companies like Planet Labs, Umbra, and HawkEye 360; GPS; miniature CubeSats for education and research; and military/defense satellites.

Loading next visibility...
GALILEO 15 (267) details
Identifier
41859, 2016-069A
Orbit
Active
Last TLE update4 days ago
Origin
Flag of ESAGNSS Agency (ESA)
ManufacturerOHB
MissionOperational Civil Navigation
Bus & MotorGALILEOSAT, AOCS
Mass738 kg wet, 700 kg dry
Launch date (UTC)
2016-11-17 (8 years ago)
Launch vehicle
ARIANE 5ES
Launch site
French Guiana (FRGUI)
Object type
Payload
Rocket body
Debris
Shape & HBRBox + 2 Pan, 14.71 m
Radar Cross Section9.223 m², Large (>1 m²)

Expand to show TLE details & history

TLE from 4 days ago
0 GALILEO 15 (267)
1 41859U 16069A   24357.91557164  .00000013  00000-0  00000+0 0  9991
2 41859  55.1830 116.0839 0002403 300.5114  59.4366  1.70474566 50392
Epoch: 2024-12-22T21:58Z
Definitive object data (Epoch: 2024-12-22T21:58:25.389Z)
Latitude-0.00005°
Longitude54.52422°
Altitude23,218.769 km
Speed3.67 km/s
True Right ascension07h 44m 18s
True Declination0° 00' 00"
Sunlit
Object was in daylight at TLE epoch
Visualization TLE readout
Latitude54.89015°
Longitude153.55824°
Altitude23,236.498 km
Speed3.67 km/s
Apparent Right ascension14h 39m 43s
Apparent Declination58° 35' 05"
Sunlit
Object is in daylight
Visualization observer readout
Local Sidereal Time13:31:42
Azimuth24.484° NE
Elevation68.421°
Doppler factor1
Orbital elements
Apogee altitude23,229.232 km
Perigee altitude23,215.006 km
Semi-major axis29,600.256 km
Eccentricity0.0002403
Inclination55.183°
RAAN116.0839°
Arg. of periapsis300.5114°
True anomaly59.46031°
Mean anomaly59.4366°
Eccentric anomaly59.44846°
Mean motion0.42619 °/min
BSTARUnknown
Orbital period844.7 mins
Loading maneuver chart data...
Loading historical data...
Loading historical data...
Loading historical data...
Loading historical data...
Loading historical data...
Loading historical data...
Loading historical data...

GALILEO 15 (267) Visibility forecast

Observer location: undefined°, undefined

Span
Click to sort rows by Start time (UTC) header in descending order
Start Az.
Max El. time (UTC)
Max El. Az.
Max El.
End time (UTC)
End Az.
240 mins2024-12-26 14:09:54.996Z24.513° NE2024-12-26 14:09:54.996Z24.513° NE42.924°2024-12-26 18:09:54.996Z134.182° SE
|